Flag for U.S.A. Weather past 2 weeks in Omaha, Nebraska, U.S.A.

Now
91 °F

Sunny.


Feels Like: 101 °F
Forecast: 75 / 92 °F
Wind: No wind

Location: Millard Airport

Current Time: Jul 22, 2014 at 12:56:27 PM

Latest Report: Jul 22, 2014 at 11:55 AM


Visibility: 10 mi

Pressure: 29.99 "Hg

Humidity: 59%

Dew point: 75 °F

Location of OmahaLocation

Historic Weather in Omaha — Graph

°F

Omaha temperature yesterday

Maximum temperature yesterday: 96 °F (at 4:55 PM)
Minimum temperature yesterday: 73 °F (at 6:35 AM)
Average temperature yesterday: 84 °F

Past Weeks' High & Low Weather Summary

 TemperatureHumidityPressure
High96 °F (Jul 21, 4:55 PM)96% (Jul 13, 2:35 AM)30.19 "Hg (Jul 13, 2:35 AM)
Low54 °F (Jul 15, 6:15 AM)37% (Jul 17, 5:15 PM)29.76 "Hg (Jul 7, 8:35 PM)
Average74 °F69%29.99 "Hg
* Reported Jul 7 11:15 AM — Jul 22 11:15 AM, Omaha, Weather by CustomWeather, © 2014

Note: Actual official high and low records may vary slightly from our data, if they occured in-between our weather recording intervals... More about our weather records

Advertising

Omaha weather history for previous 24 hours

 ConditionsComfort  
Time TempWeatherWind HumidityBarometerVisibility
11:15 AM
Jul 22
91 °FSunny.3 mph61%29.98 "Hg10 mi
10:55 AM89 °FSunny.5 mph63%29.98 "Hg10 mi
10:35 AM88 °FSunny.7 mph66%29.98 "Hg10 mi
10:15 AM87 °FSunny.6 mph70%29.96 "Hg10 mi
9:55 AM87 °FSunny.3 mph72%29.96 "Hg10 mi
9:35 AM86 °FSunny.5 mph72%29.96 "Hg10 mi
9:15 AM85 °FSunny.3 mph73%29.98 "Hg10 mi
8:55 AM84 °FSunny.6 mph71%29.98 "Hg10 mi
8:35 AM83 °FSunny.8 mph72%29.98 "Hg10 mi
8:15 AM82 °FSunny.6 mph72%29.98 "Hg10 mi
7:55 AM81 °FSunny.8 mph74%29.96 "Hg10 mi
7:15 AM82 °FSunny.7 mph70%29.96 "Hg10 mi
6:55 AM82 °FClear.No wind69%29.94 "Hg10 mi
6:35 AM82 °FClear.5 mph68%29.93 "Hg10 mi
5:15 AM84 °FClear.6 mph64%29.91 "Hg10 mi
4:55 AM85 °FClear.8 mph62%29.90 "Hg10 mi
4:35 AM86 °FClear.9 mph61%29.89 "Hg10 mi
4:15 AM86 °FClear.8 mph60%29.89 "Hg10 mi
3:55 AM86 °FClear.No wind60%29.89 "Hg10 mi
3:35 AM87 °FClear.6 mph59%29.88 "Hg10 mi
3:15 AM87 °FClear.8 mph60%29.87 "Hg10 mi
2:55 AM88 °FClear.7 mph59%29.88 "Hg10 mi
2:15 AM88 °FClear.6 mph59%29.89 "Hg10 mi
1:55 AM88 °FClear.No wind59%29.90 "Hg10 mi
1:35 AM89 °FClear.3 mph57%29.90 "Hg10 mi
1:15 AM88 °FClear.No wind57%29.89 "Hg10 mi
12:55 AM87 °FClear.3 mph62%29.88 "Hg10 mi
12:35 AM86 °FClear.6 mph67%29.88 "Hg10 mi
12:15 AM87 °FClear.5 mph68%29.87 "Hg10 mi
11:55 PM
Jul 21
86 °FClear.8 mph70%29.87 "Hg10 mi
11:15 PM86 °FClear.5 mph72%29.86 "Hg10 mi
10:55 PM86 °FClear.5 mph72%29.86 "Hg10 mi
10:35 PM87 °FClear.6 mph69%29.86 "Hg10 mi
10:15 PM87 °FClear.6 mph71%29.85 "Hg10 mi
9:55 PM87 °FClear.5 mph71%29.86 "Hg10 mi
9:15 PM89 °FSunny.5 mph69%29.83 "Hg10 mi
8:55 PM89 °FSunny.6 mph69%29.82 "Hg10 mi
8:35 PM89 °FSunny.6 mph73%29.82 "Hg10 mi
8:15 PM90 °FSunny.6 mph71%29.82 "Hg10 mi
7:55 PM91 °FSunny.6 mph68%29.82 "Hg10 mi
7:35 PM92 °FSunny.9 mph65%29.82 "Hg10 mi
7:15 PM94 °FSunny.8 mph62%29.83 "Hg10 mi
6:55 PM93 °FSunny.9 mph63%29.83 "Hg10 mi
6:35 PM95 °FSunny.7 mph57%29.83 "Hg10 mi
6:15 PM94 °FSunny.7 mph57%29.83 "Hg10 mi
5:55 PM95 °FSunny.8 mph56%29.83 "Hg10 mi
5:35 PM95 °FSunny.8 mph54%29.84 "Hg10 mi
5:15 PM95 °FSunny.9 mph55%29.84 "Hg10 mi
4:55 PM96 °FSunny.13 mph54%29.84 "Hg10 mi
4:15 PM95 °FSunny.13 mph54%29.85 "Hg10 mi
3:55 PM95 °FSunny.12 mph53%29.85 "Hg10 mi
3:15 PM94 °FSunny.12 mph54%29.85 "Hg10 mi
2:55 PM92 °FSunny.15 mph58%29.85 "Hg10 mi
2:35 PM92 °FSunny.10 mph59%29.85 "Hg10 mi
2:15 PM91 °FSunny.14 mph58%29.85 "Hg10 mi
1:55 PM92 °FSunny.10 mph57%29.85 "Hg10 mi
1:15 PM90 °FSunny.13 mph62%29.86 "Hg10 mi
12:55 PM89 °FSunny.8 mph63%29.86 "Hg10 mi
12:15 PM89 °FSunny.12 mph63%29.86 "Hg10 mi
Weather by CustomWeather, © 2014

See weather overviewHow to use our weather pages